H1 CPF 2 NER 2024 8 10 9 223 01 glonass139 H2 1808601 9139 43687 2024 8 10 0 0 0 2024 8 13 23 45 0 900 1 1 0 0 0 1 H9 10 0 60532 0.00000 0 -2705887.431 -24545174.334 6441016.982 10 0 60532 900.00000 0 -2563567.134 -23571879.126 9444846.627 10 0 60532 1800.00000 0 -2233183.295 -22273343.667 12265515.861 10 0 60532 2700.00000 0 -1680065.886 -20696335.605 14848400.798 10 0 60532 3600.00000 0 -879581.689 -18895696.486 17143511.957 10 0 60532 4500.00000 0 181582.312 -16932105.348 19106451.142 10 0 60532 5400.00000 0 1504613.872 -14869620.444 20699259.049 10 0 60532 6300.00000 0 3078282.677 -12773101.179 21891138.475 10 0 60532 7200.00000 0 4879172.486 -10705616.809 22659040.360 10 0 60532 8100.00000 0 6872429.365 -8725948.557 22988102.463 10 0 60532 9000.00000 0 9012996.021 -6886287.646 22871933.094 10 0 60532 9900.00000 0 11247282.307 -5230223.509 22312734.891 10 0 60532 10800.00000 0 13515204.141 -3791104.447 21321266.358 10 0 60532 11700.00000 0 15752507.899 -2590837.719 19916641.541 10 0 60532 12600.00000 0 17893285.367 -1639178.116 18125970.940 10 0 60532 13500.00000 0 19872576.235 -933534.090 15983849.496 10 0 60532 14400.00000 0 21628951.005 -459299.203 13531700.242 10 0 60532 15300.00000 0 23106967.473 -190695.033 10816984.907 10 0 60532 16200.00000 0 24259398.547 -92090.289 7892295.458 10 0 60532 17100.00000 0 25049138.152 -119740.919 4814343.051 10 0 60532 18000.00000 0 25450704.789 -223878.055 1642863.204 10 0 60532 18900.00000 0 25451278.797 -351055.681 -1560541.971 10 0 60532 19800.00000 0 25051228.628 -446658.501 -4733602.040 10 0 60532 20700.00000 0 24264102.787 -457463.315 -7814593.335 10 0 60532 21600.00000 0 23116086.655 -334144.465 -10743546.613 10 0 60532 22500.00000 0 21644946.038 -33615.985 -13463422.882 10 0 60532 23400.00000 0 19898501.197 478890.280 -15921233.538 10 0 60532 24300.00000 0 17932695.095 1228100.258 -18069082.003 10 0 60532 25200.00000 0 15809336.906 2227401.669 -19865105.741 10 0 60532 26100.00000 0 13593615.666 3478032.983 -21274299.498 10 0 60532 27000.00000 0 11351488.627 4968793.212 -22269203.256 10 0 60532 27900.00000 0 9147054.111 6676286.236 -22830441.147 10 0 60532 28800.00000 0 7040019.162 8565690.599 -22947100.670 10 0 60532 29700.00000 0 5083368.091 10592023.380 -22616944.845 10 0 60532 30600.00000 0 3321329.296 12701845.771 -21846453.294 10 0 60532 31500.00000 0 1787724.959 14835339.192 -20650691.658 10 0 60532 32400.00000 0 504771.849 16928665.117 -19053012.168 10 0 60532 33300.00000 0 -517617.790 18916509.713 -17084591.531 10 0 60532 34200.00000 0 -1282007.468 20734706.553 -14783815.539 10 0 60532 35100.00000 0 -1803074.454 22322827.351 -12195522.851 10 0 60532 36000.00000 0 -2106731.792 23626632.087 -9370123.218 10 0 60532 36900.00000 0 -2228773.335 24600275.779 -6362607.975 10 0 60532 37800.00000 0 -2213100.973 25208179.633 -3231472.746 10 0 60532 38700.00000 0 -2109610.744 25426488.529 -37574.019 10 0 60532 39600.00000 0 -1971828.696 25244054.386 3157057.451 10 0 60532 40500.00000 0 -1854397.733 24662905.078 6290422.832 10 0 60532 41400.00000 0 -1810522.511 23698180.257 9301757.204 10 0 60532 42300.00000 0 -1889480.902 22377537.842 12132703.899 10 0 60532 43200.00000 0 -2134307.259 20740057.011 14728438.655 10 0 60532 44100.00000 0 -2579745.137 18834684.315 17038722.364 10 0 60532 45000.00000 0 -3250555.475 16718288.314 19018862.852 10 0 60532 45900.00000 0 -4160251.170 14453403.918 20630568.184 10 0 60532 46800.00000 0 -5310311.078 12105760.016 21842676.245 10 0 60532 47700.00000 0 -6689906.520 9741692.519 22631747.716 10 0 60532 48600.00000 0 -8276152.232 7425549.158 22982512.133 10 0 60532 49500.00000 0 -10034872.138 5217192.418 22888159.291 10 0 60532 50400.00000 0 -11921849.225 3169702.776 22350470.894 10 0 60532 51300.00000 0 -13884508.927 1327376.026 21379790.021 10 0 60532 52200.00000 0 -15863967.629 -275903.521 19994828.650 10 0 60532 53100.00000 0 -17797362.646 -1617847.479 18222316.223 10 0 60532 54000.00000 0 -19620368.272 -2688457.066 16096494.968 10 0 60532 54900.00000 0 -21269794.306 -3490197.651 13658470.380 10 0 60532 55800.00000 0 -22686159.555 -4037647.109 10955428.099 10 0 60532 56700.00000 0 -23816133.264 -4356632.801 8039730.962 10 0 60532 57600.00000 0 -24614742.259 -4482893.284 4967912.614 10 0 60532 58500.00000 0 -25047250.781 -4460320.934 1799586.364 10 0 60532 59400.00000 0 -25090633.193 -4338859.575 -1403709.959 10 0 60532 60300.00000 0 -24734576.458 -4172146.035 -4579710.818 10 0 60532 61200.00000 0 -23981968.798 -4014995.821 -7666637.780 10 0 60532 62100.00000 0 -22848852.559 -3920840.069 -10604408.088 10 0 60532 63000.00000 0 -21363841.911 -3939223.357 -13335812.623 10 0 60532 63900.00000 0 -19567028.777 -4113469.670 -15807639.299 10 0 60532 64800.00000 0 -17508422.154 -4478616.811 -17971719.055 10 0 60532 65700.00000 0 -15245985.845 -5059708.308 -19785873.205 10 0 60532 66600.00000 0 -12843356.748 -5870516.579 -21214742.905 10 0 60532 67500.00000 0 -10367339.324 -6912752.867 -22230484.085 10 0 60532 68400.00000 0 -7885281.299 -8175798.599 -22813313.952 10 0 60532 69300.00000 0 -5462440.560 -9636970.688 -22951898.276 10 0 60532 70200.00000 0 -3159453.417 -11262310.483 -22643571.893 10 0 60532 71100.00000 0 -1030009.900 -13007863.881 -21894388.272 10 0 60532 72000.00000 0 881167.111 -14821399.154 -20718997.358 10 0 60532 72900.00000 0 2539955.186 -16644490.495 -19140354.346 10 0 60532 73800.00000 0 3924010.825 -18414879.781 -17189265.382 10 0 60532 74700.00000 0 5023445.219 -20069017.161 -14903779.434 10 0 60532 75600.00000 0 5840970.686 -21544673.566 -12328438.642 10 0 60532 76500.00000 0 6391513.681 -22783515.179 -9513402.289 10 0 60532 77400.00000 0 6701312.746 -23733531.531 -6513462.097 10 0 60532 78300.00000 0 6806541.583 -24351215.197 -3386968.708 10 0 60532 79200.00000 0 6751517.371 -24603401.671 -194690.934 10 0 60532 80100.00000 0 6586571.807 -24468692.499 3001369.321 10 0 60532 81000.00000 0 6365676.335 -23938402.477 6139182.888 10 0 60532 81900.00000 0 6143923.055 -23016991.882 9157896.113 10 0 60532 82800.00000 0 5974968.492 -21721966.411 11999007.131 10 0 60532 83700.00000 0 5908548.470 -20083249.801 14607492.993 10 0 60532 84600.00000 0 5988168.963 -18142055.985 16932866.401 10 0 60532 85500.00000 0 6249069.948 -15949308.279 18930142.359 10 0 60533 0.00000 0 6716547.527 -13563671.797 20560697.030 10 0 60533 900.00000 0 7404704.733 -11049279.334 21793004.233 10 0 60533 1800.00000 0 8315682.589 -8473247.752 22603234.474 10 0 60533 2700.00000 0 9439404.513 -5903082.670 22975709.015 10 0 60533 3600.00000 0 10753844.645 -3404080.821 22903198.812 10 0 60533 4500.00000 0 12225809.926 -1036835.035 22387064.075 10 0 60533 5400.00000 0 13812204.408 1145056.152 21437231.681 10 0 60533 6300.00000 0 15461724.513 3096980.792 20072010.585 10 0 60533 7200.00000 0 17116916.071 4784926.338 18317748.062 10 0 60533 8100.00000 0 18716508.862 6186647.012 16208332.348 10 0 60533 9000.00000 0 20197932.581 7292337.870 13784549.981 10 0 60533 9900.00000 0 21499910.110 8104787.868 11093308.909 10 0 60533 10800.00000 0 22565020.216 8639005.709 8186741.054 10 0 60533 11700.00000 0 23342122.442 8921334.147 5121200.564 10 0 60533 12600.00000 0 23788542.045 8988089.870 1956176.373 10 0 60533 13500.00000 0 23871922.371 8883786.151 -1246860.315 10 0 60533 14400.00000 0 23571665.507 8659013.330 -4425651.301 10 0 60533 15300.00000 0 22879899.089 8368066.931 -7518365.869 10 0 60533 16200.00000 0 21801926.930 8066424.291 -10464810.199 10 0 60533 17100.00000 0 20356142.849 7808177.319 -13207607.390 10 0 60533 18000.00000 0 18573409.867 7643531.143 -15693324.061 10 0 60533 18900.00000 0 16495929.619 7616475.814 -17873520.682 10 0 60533 19800.00000 0 14175648.519 7762730.950 -19705704.247 10 0 60533 20700.00000 0 11672266.943 8108051.686 -21154163.983 10 0 60533 21600.00000 0 9050934.508 8666968.808 -22190673.263 10 0 60533 22500.00000 0 6379727.779 9442017.515 -22795043.702 10 0 60533 23400.00000 0 3727015.895 10423488.311 -22955520.463 10 0 60533 24300.00000 0 1158824.167 11589711.312 -22669011.074 10 0 60533 25200.00000 0 -1263694.353 12907862.537 -21941143.410 10 0 60533 26100.00000 0 -3486574.021 14335258.483 -20786151.900 10 0 60533 27000.00000 0 -5465042.363 15821084.597 -19226594.465 10 0 60533 27900.00000 0 -7165133.544 17308484.773 -17292906.004 10 0 60533 28800.00000 0 -8564843.274 18736923.679 -15022797.532 10 0 60533 29700.00000 0 -9654778.386 20044722.145 -12460513.123 10 0 60533 30600.00000 0 -10438275.728 21171658.545 -9655959.658 10 0 60533 31500.00000 0 -10930987.426 22061526.295 -6663726.986 10 0 60533 32400.00000 0 -11159952.180 22664539.595 -3542018.226 10 0 60533 33300.00000 0 -11162193.854 22939486.052 -351511.750 10 0 60533 34200.00000 0 -10982908.495 22855535.701 2845822.312 10 0 60533 35100.00000 0 -10673318.048 22393630.606 5987927.484 10 0 60533 36000.00000 0 -10288282.799 21547397.117 9013864.476 10 0 60533 36900.00000 0 -9883774.329 20323542.982 11864989.302 10 0 60533 37800.00000 0 -9514316.188 18741723.270 14486083.364 10 0 60533 38700.00000 0 -9230500.358 16833881.138 16826414.094 10 0 60533 39600.00000 0 -9076683.910 14643091.276 18840706.446 10 0 60533 40500.00000 0 -9088962.344 12221954.263 20490007.501 10 0 60533 41400.00000 0 -9293504.193 9630608.279 21742428.733 10 0 60533 42300.00000 0 -9705316.288 6934440.118 22573752.791 10 0 60533 43200.00000 0 -10327491.100 4201589.410 22967894.278 10 0 60533 44100.00000 0 -11150967.638 1500348.096 22917206.507 10 0 60533 45000.00000 0 -12154816.250 -1103438.608 22422628.881 10 0 60533 45900.00000 0 -13307036.141 -3548863.817 21493672.231 10 0 60533 46800.00000 0 -14565833.358 -5782241.525 20148242.064 10 0 60533 47700.00000 0 -15881327.142 -7759086.876 18412302.468 10 0 60533 48600.00000 0 -17197614.729 -9445713.150 16319386.086 10 0 60533 49500.00000 0 -18455109.616 -10820379.961 13909958.349 10 0 60533 50400.00000 0 -19593056.499 -11873945.330 11230646.880 10 0 60533 51300.00000 0 -20552118.309 -12609994.697 8333349.643 10 0 60533 52200.00000 0 -21276927.067 -13044441.486 5274237.941 10 0 60533 53100.00000 0 -21718491.244 -13204615.877 2112672.753 10 0 60533 54000.00000 0 -21836357.633 -13127879.951 -1089945.037 10 0 60533 54900.00000 0 -21600435.613 -12859827.514 -4271368.334 10 0 60533 55800.00000 0 -20992405.412 -12452144.651 -7369717.874 10 0 60533 56700.00000 0 -20006649.322 -11960221.782 -10324692.435 10 0 60533 57600.00000 0 -18650664.781 -11440618.759 -13078750.829 10 0 60533 58500.00000 0 -16944940.175 -10948491.126 -15578241.642 10 0 60533 59400.00000 0 -14922296.986 -10535087.449 -17774457.786 10 0 60533 60300.00000 0 -12626724.560 -10245424.743 -19624594.411 10 0 60533 61200.00000 0 -10111755.433 -10116241.490 -21092590.736 10 0 60533 62100.00000 0 -7438448.550 -10174315.857 -22149838.874 10 0 60533 63000.00000 0 -4673064.364 -10435221.159 -22775745.467 10 0 60533 63900.00000 0 -1884528.801 -10902571.875 -22958135.018 10 0 60533 64800.00000 0 858208.130 -11567792.612 -22693487.047 10 0 60533 65700.00000 0 3488808.944 -12410420.081 -21987002.556 10 0 60533 66600.00000 0 5946070.677 -13398925.459 -20852498.694 10 0 60533 67500.00000 0 8176227.436 -14492022.348 -19312133.934 10 0 60533 68400.00000 0 10134938.042 -15640404.924 -17395969.425 10 0 60533 69300.00000 0 11788876.660 -16788842.563 -15141375.445 10 0 60533 70200.00000 0 13116861.219 -17878542.121 -12592295.001 10 0 60533 71100.00000 0 14110473.967 -18849677.713 -9798379.405 10 0 60533 72000.00000 0 14774150.040 -19643980.768 -6814013.338 10 0 60533 72900.00000 0 15124732.393 -20207280.695 -3697249.059 10 0 60533 73800.00000 0 15190513.981 -20491888.729 -508671.181 10 0 60533 74700.00000 0 15009809.622 -20458724.306 2689785.153 10 0 60533 75600.00000 0 14629119.665 -20079094.447 5836039.182 10 0 60533 76500.00000 0 14100964.517 -19336051.458 8869068.723 10 0 60533 77400.00000 0 13481482.609 -18225272.178 11730090.088 10 0 60533 78300.00000 0 12827893.842 -16755422.230 14363691.058 10 0 60533 79200.00000 0 12195935.737 -14947990.295 16718895.423 10 0 60533 80100.00000 0 11637380.121 -12836599.515 18750139.290 10 0 60533 81000.00000 0 11197734.349 -10465824.653 20418141.325 10 0 60533 81900.00000 0 10914222.912 -7889563.881 21690651.340 10 0 60533 82800.00000 0 10814133.397 -5169032.142 22543063.996 10 0 60533 83700.00000 0 10913595.403 -2370458.312 22958886.924 10 0 60533 84600.00000 0 11216843.050 437419.792 22930055.173 10 0 60533 85500.00000 0 11715991.774 3185960.365 22457086.470 10 0 60534 0.00000 0 12391338.885 5809216.145 21549074.605 10 0 60534 900.00000 0 13212176.271 8246421.995 20223520.203 10 0 60534 1800.00000 0 14138081.235 10444266.502 18506002.801 10 0 60534 2700.00000 0 15120633.769 12358859.306 16429697.896 10 0 60534 3600.00000 0 16105488.667 13957309.916 14034748.131 10 0 60534 4500.00000 0 17034717.057 15218854.278 11367499.002 10 0 60534 5400.00000 0 17849319.882 16135482.213 8479612.580 10 0 60534 6300.00000 0 18491808.202 16712039.500 5427075.253 10 0 60534 7200.00000 0 18908741.780 16965800.150 2269117.864 10 0 60534 8100.00000 0 19053118.551 16925526.611 -932931.315 10 0 60534 9000.00000 0 18886513.305 16630057.235 -4116838.611 10 0 60534 9900.00000 0 18380873.961 16126480.438 -7220678.535 10 0 60534 10800.00000 0 17519897.957 15467972.773 -10184044.705 10 0 60534 11700.00000 0 16299928.801 14711392.544 -12949233.759 10 0 60534 12600.00000 0 14730333.028 13914731.318 -15462378.209 10 0 60534 13500.00000 0 12833339.813 13134531.829 -17674505.192 10 0 60534 14400.00000 0 10643348.303 12423382.372 -19542499.626 10 0 60534 15300.00000 0 8205730.377 11827594.542 -21029952.188 10 0 60534 16200.00000 0 5575177.938 11385163.330 -22107875.055 10 0 60534 17100.00000 0 2813663.179 11124096.517 -22755271.072 10 0 60534 18000.00000 0 -11903.365 11061184.442 -22959545.085 10 0 60534 18900.00000 0 -2832219.434 11201262.427 -22716749.378 10 0 60534 19800.00000 0 -5578236.251 11536997.052 -22031658.559 10 0 60534 20700.00000 0 -8183792.102 12049205.163 -20917672.611 10 0 60534 21600.00000 0 -10588124.692 12707691.797 -19396550.266 10 0 60534 22500.00000 0 -12738157.913 13472571.134 -17497978.201 10 0 60534 23400.00000 0 -14590468.185 14296014.063 -15258984.849 10 0 60534 24300.00000 0 -16112849.204 15124347.849 -12723210.668 10 0 60534 25200.00000 0 -17285410.926 15900418.470 -9940049.617 10 0 60534 26100.00000 0 -18101168.328 16566115.103 -6963679.200 10 0 60534 27000.00000 0 -18566097.079 17064949.473 -3851998.602 10 0 60534 27900.00000 0 -18698655.811 17344580.602 -665496.329 10 0 60534 28800.00000 0 -18528797.103 17359177.983 2533929.940 10 0 60534 29700.00000 0 -18096510.791 17071523.304 5684177.738 10 0 60534 30600.00000 0 -17449962.696 16454762.109 8724144.653 10 0 60534 31500.00000 0 -16643308.603 15493731.763 11594910.033 10 0 60534 32400.00000 0 -15734276.573 14185810.119 14240870.805 10 0 60534 33300.00000 0 -14781619.844 12541249.410 16610809.876 10 0 60534 34200.00000 0 -13842547.556 10582981.489 18658877.198 10 0 60534 35100.00000 0 -12970240.848 8345902.381 20345465.582 10 0 60534 36000.00000 0 -12211557.882 5875665.549 21637965.555 10 0 60534 36900.00000 0 -11605023.079 3227033.344 22511385.897 10 0 60534 37800.00000 0 -11179183.844 461854.031 22948829.070 10 0 60534 38700.00000 0 -10951402.611 -2353253.117 22941813.290 10 0 60534 39600.00000 0 -10927134.143 -5149410.314 22490435.627 10 0 60534 40500.00000 0 -11099717.922 -7858089.060 21603373.186 10 0 60534 41400.00000 0 -11450694.394 -10413706.998 20297722.104 10 0 60534 42300.00000 0 -11950632.234 -12756107.831 18598676.802 10 0 60534 43200.00000 0 -12560432.714 -14832822.834 16539054.673 10 0 60534 44100.00000 0 -13233057.431 -16601021.140 14158674.119 10 0 60534 45000.00000 0 -13915607.837 -18029068.312 11503596.579 10 0 60534 45900.00000 0 -14551670.068 -19097628.566 8625245.897 10 0 60534 46800.00000 0 -15083827.017 -19800264.632 5579420.852 10 0 60534 47700.00000 0 -15456232.026 -20143509.842 2425219.157 10 0 60534 48600.00000 0 -15617135.429 -20146409.092 -776106.753 10 0 60534 49500.00000 0 -15521256.565 -19839547.528 -3962340.052 10 0 60534 50400.00000 0 -15131899.905 -19263607.562 -7071512.576 10 0 60534 51300.00000 0 -14422724.313 -18467514.903 -10043116.418 10 0 60534 52200.00000 0 -13379088.864 -17506251.918 -12819289.692 10 0 60534 53100.00000 0 -11998916.416 -16438430.988 -15345952.393 10 0 60534 54000.00000 0 -10293036.508 -15323730.872 -17573869.249 10 0 60534 54900.00000 0 -8284991.200 -14220305.057 -19459617.996 10 0 60534 55800.00000 0 -6010310.362 -13182272.261 -20966443.385 10 0 60534 56700.00000 0 -3515285.410 -12257395.763 -22064979.727 10 0 60534 57600.00000 0 -855291.770 -11485050.064 -22733827.538 10 0 60534 58500.00000 0 1907270.471 -10894561.069 -22959972.822 10 0 60534 59400.00000 0 4705332.182 -10503989.932 -22739040.806 10 0 60534 60300.00000 0 7469709.032 -10319411.744 -22075379.291 10 0 60534 61200.00000 0 10131747.156 -10334719.110 -20981970.138 10 0 60534 62100.00000 0 12625950.445 -10531958.281 -19480170.894 10 0 60534 63000.00000 0 14892480.100 -10882182.849 -17599291.885 10 0 60534 63900.00000 0 16879422.479 -11346788.027 -15376017.387 10 0 60534 64800.00000 0 18544731.163 -11879268.118 -12853682.623 10 0 60534 65700.00000 0 19857762.967 -12427321.858 -10081421.154 10 0 60534 66600.00000 0 20800344.779 -12935215.616 -7113199.933 10 0 60534 67500.00000 0 21367328.054 -13346303.624 -4006761.478 10 0 60534 68400.00000 0 21566609.434 -13605597.877 -822494.447 10 0 60534 69300.00000 0 21418618.458 -13662278.487 2377744.690 10 0 60534 70200.00000 0 20955295.850 -13472038.035 5531835.386 10 0 60534 71100.00000 0 20218607.068 -12999160.758 8578598.378 10 0 60534 72000.00000 0 19258655.218 -12218248.877 11458979.071 10 0 60534 72900.00000 0 18131473.839 -11115523.459 14117186.123 10 0 60534 73800.00000 0 16896593.080 -9689645.223 16501763.666 10 0 60534 74700.00000 0 15614481.725 -7952020.900 18566577.121 10 0 60534 75600.00000 0 14343972.188 -5926582.154 20271694.594 10 0 60534 76500.00000 0 13139775.744 -3649045.854 21584148.021 10 0 60534 77400.00000 0 12050191.104 -1165685.841 22478560.588 10 0 60534 78300.00000 0 11115101.054 1468333.828 22937629.488 10 0 60534 79200.00000 0 10364339.712 4190996.307 22952455.659 10 0 60534 80100.00000 0 9816497.621 6935757.166 22522714.746 10 0 60534 81000.00000 0 9478213.768 9634062.776 21656666.218 10 0 60534 81900.00000 0 9343983.658 12217959.339 20371000.253 10 0 60534 82800.00000 0 9396491.364 14622686.096 18690524.687 10 0 60534 83700.00000 0 9607451.901 16789146.619 16647697.084 10 0 60534 84600.00000 0 9938929.162 18666156.718 14282009.697 10 0 60534 85500.00000 0 10345074.773 20212376.194 11639237.856 10 0 60535 0.00000 0 10774215.494 21397844.213 8770565.225 10 0 60535 900.00000 0 11171202.081 22205054.729 5731600.108 10 0 60535 1800.00000 0 11479920.364 22629525.147 2581304.870 10 0 60535 2700.00000 0 11645859.244 22679835.943 -619146.423 10 0 60535 3600.00000 0 11618626.060 22377137.340 -3807556.343 10 0 60535 4500.00000 0 11354302.255 21754143.897 -6921916.554 10 0 60535 5400.00000 0 10817538.321 20853658.821 -9901620.009 10 0 60535 6300.00000 0 9983297.726 19726689.977 -12688648.512 10 0 60535 7200.00000 0 8838174.189 18430237.102 -15228711.550 10 0 60535 8100.00000 0 7381224.635 17024843.806 -17472313.245 10 0 60535 9000.00000 0 5624280.673 15572018.086 -19375725.744 10 0 60535 9900.00000 0 3591723.593 14131630.686 -20901849.262 10 0 60535 10800.00000 0 1319730.701 12759401.563 -22020941.468 10 0 60535 11700.00000 0 -1144976.775 11504580.817 -22711201.569 10 0 60535 12600.00000 0 -3746832.746 10407922.121 -22959197.541 10 0 60535 13500.00000 0 -6423501.946 9500034.018 -22760128.105 10 0 60535 14400.00000 0 -9108245.959 8800178.294 -22117914.472 10 0 60535 15300.00000 0 -11732481.003 8315565.495 -21045120.229 10 0 60535 16200.00000 0 -14228420.851 8041176.467 -19562701.173 10 0 60535 17100.00000 0 -16531694.709 7960116.374 -17699590.305 10 0 60535 18000.00000 0 -18583830.864 8044485.048 -15492126.409 10 0 60535 18900.00000 0 -20334502.733 8256725.582 -12983337.820 10 0 60535 19800.00000 0 -21743443.938 8551392.831 -10222095.815 10 0 60535 20700.00000 0 -22781953.070 8877265.710 -7262154.755 10 0 60535 21600.00000 0 -23433926.232 9179712.730 -4161098.330 10 0 60535 22500.00000 0 -23696375.422 9403209.637 -979213.114 10 0 60535 23400.00000 0 -23579412.583 9493901.760 2221687.932 10 0 60535 24300.00000 0 -23105701.641 9402102.104 5379468.553 10 0 60535 25200.00000 0 -22309403.275 9084619.210 8432875.076 10 0 60535 26100.00000 0 -21234658.217 8506816.337 11322721.454 10 0 60535 27000.00000 0 -19933674.095 7644315.116 13993030.615 10 0 60535 27900.00000 0 -18464496.955 6484272.038 16392110.440 10 0 60535 28800.00000 0 -16888561.379 5026174.164 18473544.274 10 0 60535 29700.00000 0 -15268121.763 3282120.597 20197077.837 10 0 60535 30600.00000 0 -13663671.743 1276577.602 21529386.601 10 0 60535 31500.00000 0 -12131458.742 -954383.027 22444710.024 10 0 60535 32400.00000 0 -10721196.279 -3364331.611 22925341.605 10 0 60535 33300.00000 0 -9474068.156 -5898163.649 22961966.248 10 0 60535 34200.00000 0 -8421106.507 -8494149.954 22553839.066 10 0 60535 35100.00000 0 -7582010.200 -11086270.561 21708802.430 10 0 60535 36000.00000 0 -6964451.965 -13606737.441 20443140.711 10 0 60535 36900.00000 0 -6563902.662 -15988603.080 18781274.920 10 0 60535 37800.00000 0 -6363979.776 -18168348.241 16755302.156 10 0 60535 38700.00000 0 -6337305.684 -20088342.621 14404387.489 10 0 60535 39600.00000 0 -6446840.035 -21699076.838 11774018.712 10 0 60535 40500.00000 0 -6647630.777 -22961073.153 8915137.000 10 0 60535 41400.00000 0 -6888910.587 -23846395.131 5883159.108 10 0 60535 42300.00000 0 -7116450.693 -24339692.686 2736909.160 10 0 60535 43200.00000 0 -7275072.735 -24438738.065 -462519.811 10 0 60535 44100.00000 0 -7311212.225 -24154429.463 -3652952.673 10 0 60535 45000.00000 0 -7175424.416 -23510261.274 -6772344.028 10 0 60535 45900.00000 0 -6824725.408 -22541282.556 -9759990.973 10 0 60535 46800.00000 0 -6224667.903 -21292586.984 -12557722.414 10 0 60535 47700.00000 0 -5351062.035 -19817397.660 -15111040.782 10 0 60535 48600.00000 0 -4191266.531 -18174827.414 -17370192.979 10 0 60535 49500.00000 0 -2744993.728 -16427409.122 -19291148.772 10 0 60535 50400.00000 0 -1024592.504 -14638500.430 -20836466.752 10 0 60535 51300.00000 0 945204.533 -12869672.504 -21976030.431 10 0 60535 52200.00000 0 3128060.532 -11178193.061 -22687639.706 10 0 60535 53100.00000 0 5477309.092 -9614709.765 -22957445.967 10 0 60535 54000.00000 0 7937671.639 -8221231.381 -22780222.310 10 0 60535 54900.00000 0 10447346.290 -7029491.284 -22159463.693 10 0 60535 55800.00000 0 12940381.148 -6059761.549 -21107315.226 10 0 60535 56700.00000 0 15349233.032 -5320166.571 -19644330.261 10 0 60535 57600.00000 0 17607404.779 -4806523.916 -17799063.285 10 0 60535 58500.00000 0 19652050.878 -4502717.697 -15607505.916 10 0 60535 59400.00000 0 21426442.617 -4381587.108 -13112377.446 10 0 60535 60300.00000 0 22882189.851 -4406290.985 -10362284.235 10 0 60535 61200.00000 0 23981126.816 -4532089.073 -7410764.984 10 0 60535 62100.00000 0 24696783.685 -4708463.140 -4315241.124 10 0 60535 63000.00000 0 25015383.172 -4881486.814 -1135893.461 10 0 60535 63900.00000 0 24936321.565 -4996342.738 2065512.378 10 0 60535 64800.00000 0 24472115.380 -4999879.616 5226828.215 10 0 60535 65700.00000 0 23647817.340 -4843100.439 8286729.602 10 0 60535 66600.00000 0 22499927.605 -4483476.407 11185902.394 10 0 60535 67500.00000 0 21074847.140 -3886988.750 13868186.765 10 0 60535 68400.00000 0 19426938.989 -3029812.444 16281656.902 10 0 60535 69300.00000 0 17616279.203 -1899571.040 18379616.185 10 0 60535 70200.00000 0 15706191.590 -496109.919 20121489.620 10 0 60535 71100.00000 0 13760668.904 1168244.625 21473597.458 10 0 60535 72000.00000 0 11841787.329 3068951.752 22409796.272 10 0 60535 72900.00000 0 10007220.890 5170037.570 22911976.320 10 0 60535 73800.00000 0 8307957.979 7425360.346 22970406.541 10 0 60535 74700.00000 0 6786313.633 9780308.206 22583921.215 10 0 60535 75600.00000 0 5474318.929 12173860.470 21759944.937 10 0 60535 76500.00000 0 4392553.337 14540928.785 20514355.248 10 0 60535 77400.00000 0 3549467.800 16814882.603 18871184.975 10 0 60535 78300.00000 0 2941226.138 18930155.669 16862169.090 10 0 60535 79200.00000 0 2552071.147 20824826.500 14526143.553 10 0 60535 80100.00000 0 2355200.050 22443066.304 11908306.459 10 0 60535 81000.00000 0 2314112.800 23737352.791 9059354.390 10 0 60535 81900.00000 0 2384376.833 24670357.407 6034509.486 10 0 60535 82800.00000 0 2515734.192 25216426.653 2892455.190 10 0 60535 83700.00000 0 2654462.209 25362594.633 -305799.282 10 0 60535 84600.00000 0 2745887.796 25109083.374 -3498103.913 10 0 60535 85500.00000 0 2736948.449 24469268.824 -6622379.022 99